Weather in Karabashi

Russia / Chuvash Republic     55°57′39″N   47°54′43″E
temp.,
°C
wind,
m/s
gust,
m/s
humid.,
%
clouds,
%
prec.,
mm/h
press.,
hPa
HPBL,
m
8 march, mon
mon800:00−5s71394100 1.2 994808
03:00−5s61195100 1.8 991540
06:00−5w51195100 1.4 990620
09:00−7w7138698 1.5 993647
12:00−5wsw589259 0.4 997763
15:00−5wsw688580 0.5 998892
18:00−10wsw339088 0.0 99934
21:00−11wnw239182 0.0 100028
9 march, tue
tue900:00−13w349660 0.0 100259
03:00−15w479630 0.0 100599
06:00−18w339861 0.0 100731
09:00−14wnw249480 0.1 1009233
12:00−10wnw2388100 0.1 1010452
15:00−9nw2489100 0.2 1010527
18:00−11n4795100 0.3 1011284
21:00−15nnw489697 0.4 1013197
10 march, wed
wed1000:00−16nnw599590 0.1 1013306
03:00−19nnw5109695 0.1 1014294
06:00−23nnw51096100 0.0 1016308
09:00−24nnw6109497 0.1 1017366
12:00−20n699186 0.0 1019500
15:00−18n6108683 0.0 1020589
18:00−21nnw35925 0.0 102172
21:00−24nw35962 0.0 102380
11 march, thu
thu1100:00−25nw34980 0.0 102353
03:00−26wnw339911 0.0 102557
06:00−25wnw369843 0.0 1025124
09:00−19wnw6119260 0.0 1025275
12:00−14nw6109299 0.2 1024507
15:00−9nw6108792 0.2 1024619
18:00−11nw499058 0.0 1025182
21:00−13wnw4109347 0.0 1027206
12 march, fri
fri1200:00−15wnw47956 0.0 1028129
03:00−17wnw33963 0.0 102941
06:00−19w35950 0.0 103070
09:00−15w48920 0.0 1031261
12:00−11w58866 0.0 1031425
15:00−10w69853 0.0 1031525
18:00−14wsw4109137 0.0 1031191
21:00−17wsw4109320 0.0 1032166